Terminal Aerodrome Forecast
Issued by NWS Pittsburgh, PA

Current Version | Previous Version | Graphics & Text | Print | Product List | Glossary On
Versions: 1 2 3 4 5 6 7 8 9 10 11 12 13 14 15 16 17 18 19 20 21 22 23 24 25 26 27
000
FTUS41 KPBZ 151722
TAFPIT
TAF
KPIT 151722Z 1518/1624 26008KT P6SM BKN100
     FM152200 24009KT P6SM VCSH BKN045
     FM160000 25011G22KT P6SM VCSH BKN025
     FM160900 25009KT P6SM VCSH BKN025
     FM161500 24009KT P6SM VCSH BKN060=

USA.gov is the U.S. government's official web portal to all federal, state and local government web resources and services.